Regional Weather Roundup
Issued by NWS

Home | Current Version | Previous Version | Graphics & Text | Print | Product List | Glossary On
Versions: 1 2 3 4 5 6 7 8 9 10 11 12 13 14 15 16 17 18 19 20 21 22 23 24 25 26 27 28 29 30 31 32 33 34 35 36 37 38 39 40 41 42 43 44 45 46 47 48 49 50
000
ASUS43 KLSX 221707
RWRMO

WEATHER SUMMARY FOR MISSOURI
NATIONAL WEATHER SERVICE SPRINGFIELD MO
1200 PM CDT WED OCT 22 2014

NOTE: "FAIR" INDICATES FEW OR NO CLOUDS BELOW 12,000 FEET WITH NO
       SIGNIFICANT WEATHER AND/OR OBSTRUCTIONS TO VISIBILITY.
       CURRENT SKY AND/OR WEATHER CONDITIONS ARE NOT AVAILABLE FOR
       CHILLICOTHE AND FARMINGTON.

MOZ001>031-035>038-043-044-053-054-221800-
...NORTHERN AND WESTERN MISSOURI...

CITY           SKY/WX    TMP DP  RH WIND       PRES   REMARKS
KANSAS CTY INT PTSUNNY   63  50  62 SE15      30.19S
KANSAS C DTWN  MOSUNNY   66  50  56 E8        30.19F
LEE`S SUMMIT   MOSUNNY   62  48  60 SE9       30.21F
ST JOSEPH      MOSUNNY   64  50  60 SE10      30.18S
CHILLICOTHE      N/A     61  47  59 SE7       30.24F
KIRKSVILLE       N/A     57  46  66 SE10      30.28F

$$
MOZ066>068-077>081-088>096-101>105-221800-
...SOUTHWEST MISSOURI...

CITY           SKY/WX    TMP DP  RH WIND       PRES   REMARKS
SPRINGFIELD    SUNNY     63  47  55 S10       30.24F
JOPLIN         MOSUNNY   69  53  56 S9        30.21S

$$
MOZ032>034-039>042-045>050-055>058-069>072-221800-
...CENTRAL MISSOURI...

CITY           SKY/WX    TMP DP  RH WIND       PRES   REMARKS
COLUMBIA       SUNNY     60  46  59 VRB7      30.28F
JEFFERSON CITY SUNNY     60  43  53 SE7       30.28F
ROLLA          SUNNY     58  42  55 SE9       30.28S
SEDALIA        SUNNY     64  47  53 SE9       30.25F
WHITEMAN AFB   SUNNY     64  48  56 S9        30.23S
OSAGE BEACH    SUNNY     63  45  51 SE8       30.26F

$$
MOZ051-052-059>065-221800-
...EAST CENTRAL MISSOURI...

CITY           SKY/WX    TMP DP  RH WIND       PRES   REMARKS
ST LOUIS INTL  MOSUNNY   57  42  57 E6        30.33S
SPIRIT OF STL  SUNNY    N/A N/A N/A CALM      30.32S
ST CHARLES     SUNNY     57  43  59 SE5       30.32F

$$
MOZ072>076-082>087-097>100-106>115-221800-
...SOUTH CENTRAL AND SOUTHEAST MISSOURI...

CITY           SKY/WX    TMP DP  RH WIND       PRES   REMARKS
CAPE GIRARDEAU SUNNY     60  44  55 CALM      30.31S
FARMINGTON     SUNNY     57  45  62 N3        30.33R
POPLAR BLUFF   SUNNY     60  42  51 E6        30.29F
WEST PLAINS    SUNNY     58  42  55 SE3       30.30S

$$



USA.gov is the U.S. government's official web portal to all federal, state and local government web resources and services.